H-2A R/B - Orbit

View from above orbital plane
View from above orbital plane
View from above satellite
View from above satellite

Ground track
Ground track

The orbit data is extracted from the following two-line orbital elements,

1 27601U 02056E   13145.31273384  .00000177  00000-0  81302-4 0  8143
2 27601 098.5061 231.4387 0072455 005.3503 040.0887 14.31145148545524
Epoch (UTC): 25 May 2013 07:30:20
Eccentricity: 0.0072455
inclination: 98.5061°
perigee height: 736 km
apogee height: 840 km
right ascension of ascending node: 231.4387°
argument of perigee: 5.3503°
revolutions per day: 14.31145148
mean anomaly at epoch: 40.0887°
orbit number at epoch: 54552

The dashed part of the orbit path shows where the satellite is in the earth's shadow,  

Developed and maintained by Chris Peat, Heavens-Above GmbH. Please read the updated FAQ before sending e-mail. Imprint. DLR